MOS 1A (MOMO 1)

Satellite information

Favourite Embed

Satellite Type and Status

PAYLOADIN ORBIT

Key statistics

Satellite MOS 1A (MOMO 1) at a glance.

Uptime

14121

Days in orbit

Revolutions

≈ 14.0

Per day

Orbit

SSO

Sun Synchronous Orbit

Inclination

98.9

Latest

Satellite identification and parameters

Extended collection of information and parameters for MOS 1A (MOMO 1).

Object identification

Identified? True

Debris? False

Object name: MOS 1A (MOMO 1)

International designator: 1987-018A

Object number (NORAD): 17527

Object ID (CCSDS): 17527

Country: JAPAN (JPN)

Current information (Y/N): Y

RCS size: LARGE

Orbital parameters

Period: 102.628 minutes

Inclination: 98.8793 deg

SMA: 7261.113 km

Apoapsis: 889.678 km

Periapsis: 876.279 km

RAAN: 341.7374 deg

Eccentricy: 0.00092264

Argument of periapsis: 142.7172 deg

Mean anomaly: 30.209 deg

Mean motion: 14.03130087 rev/day

Mean motion (dot): 0.00000315 rev/day2

B* drag term: 0.00023011487 1/REarth

Two-line elements (TLE)

Creation date: Oct. 18, 2025, 2:17 a.m.

Reference frame: TEME

Reference center: EARTH

Epoch: Oct. 17, 2025, 9:41 p.m. UTC

TLE line 0: 0 MOS 1A (MOMO 1)

TLE line 1: 1 17527U 87018A 25290.90405976 .00000315 00000-0 23011-3 0 9993

TLE line 2: 2 17527 98.8793 341.7374 0009226 142.7172 30.2090 14.03130087976081

Live tracking on map

Real-time ground track for satellite MOS 1A (MOMO 1).

In-orbit conjunctions

A list of the most updated potential collisions computed for object MOS 1A (MOMO 1).

Target Orbit TCA Probability of collision Miss distance Type
NOAA 17 DEB SSO 2025-08-01 21:03:52 0.0004143388 830.0 (m) DEBRIS
SL-14 DEB LEO 2025-04-30 22:54:48 0.0001118759 370.0 (m) DEBRIS
METEOR 2-17 DEB LEO 2025-03-21 10:50:07 0.000696163 243.0 (m) DEBRIS
SL-16 DEB LEO 2025-03-01 04:52:34 0.0002044401 868.0 (m) DEBRIS

Associated space launch

Japanese Earth observation satellite

MOS 1A (MOMO 1) was lifted into orbit during the mission ‘N-2 | Momo 1a’, on board a N-2 space rocket.

The launch took place on Feb. 19, 1987, 1:23 a.m. from Osaki Launch Complex.

For more information about the launch, click the button.

Launch to space N-2 | Momo 1a
N-2 | Momo 1a

Agency: N/A

Status: Launch Successful

Launch date: Feb. 19, 1987, 1:23 a.m. UTC

Rocket: N-2

Launch pad: Osaki Launch Complex

Location: Tanegashima Space Center, Japan

...

Latest news about this satellite

There are no fresh news available about this satellite. Check back as we update our databases every day.


Newsletter sign-up

Weekly statistics, charts and insights to help you stay on top of the space industry.